Location: Nickerson Gardens
(33.9320°N, 118.2484°W)
Time: 18:14:11
(UTC+00:00)

ITUPSAT 1 - Visible Passes

Search period start: 16 April 2021 00:00
Search period end: 26 April 2021 00:00
Orbit: 702 x 712 km, 98.6° (Epoch: 16 April)

Date Brightness Start Highest point End Pass type
(mag) Time Alt. Az. Time Alt. Az. Time Alt. Az.
16 Apr ? 03:27:46 10° N 03:32:18 43° WNW 03:36:49 10° SW visible
17 Apr ? 04:13:21 10° NNW 04:16:05 15° WNW 04:18:49 10° W visible
18 Apr ? 03:18:09 10° N 03:22:51 55° WNW 03:27:31 10° SSW visible
18 Apr ? 12:47:44 10° ENE 12:48:07 10° ENE 12:48:31 10° ENE visible
19 Apr ? 04:03:20 10° NNW 04:06:41 19° WNW 04:10:03 10° WSW visible
20 Apr ? 03:08:36 10° N 03:13:23 71° WNW 03:18:09 10° SSW visible
21 Apr ? 03:53:28 10° NNW 03:57:17 24° WNW 04:01:06 10° WSW visible
22 Apr ? 02:59:05 10° NNE 03:03:54 90° ENE 03:08:42 10° SSW visible
23 Apr ? 03:43:42 10° N 03:47:52 30° WNW 03:52:01 10° SW visible
24 Apr ? 02:49:37 10° NNE 02:54:25 70° ESE 02:59:10 10° S visible
24 Apr ? 04:30:32 10° NW 04:31:33 11° WNW 04:32:33 10° WNW visible
25 Apr ? 03:34:00 10° N 03:38:26 38° WNW 03:42:50 10° SW visible
